FALCON 9 DEB, 48607

Orbit data source: Space-Track

FALCON 9 DEB, 48607 is space debris in LEO originally from a launch on Sat, 15 May 2021 UTC launched from the Air Force Eastern Test Range (AFETR). Debris objects in space refer to the collection of defunct objects orbiting the Earth. Examples of debris include non-operational satellites, rocket bodies, and fragments generated from explosions, collisions, or faulty payload assembly.

Loading next visibility...
Identifier
48607, 2021-041BG
Orbit
LEO
Country
Flag of USUS
Related business
Manufacturer
SpaceX/Seattle
Mission
Spacecraft
Bus & Motor
Unknown
Mass
~100 kg wet, ~100 kg dry
Launch date (UTC)
2021-05-15 (5 years ago)
Launch vehicle
Unknown
Launch site
Air Force Eastern Test Range (AFETR)
Object type
Payload
Rocket body
Debris
Shape & HBR
Cyl, 3.5 m
Radar Cross Section
0.110 m², Medium (>0.1 m² and < 1m²)

Expand to show TLE details & history
Last TLE update: 13 hours ago

TLE from 13 hours ago
0 FALCON 9 DEB
1 48607U 21041BG  25349.88948573  .00001060  00000-0  92143-4 0  9998
2 48607  53.0346 216.7388 0010516 272.6705  87.3080 15.05550144251537
Epoch: 2025-12-15T21:20Z
TLE epoch observation values (Epoch: 2025-12-15T21:20:51.567Z)
Latitude
0.00003°
Longitude
171.74239°
Altitude
550.36 km
Speed
7.588 km/s
True Right ascension
14h 26m 57s
True Declination
0° 00' 00"
Sunlit
Object was in daylight at epoch
Visualization orbit readout
Latitude
Unknown
Longitude
Unknown
Altitude
Unknown
Speed
Unknown
Apparent Right ascension
Unknown
Apparent Declination
Unknown
Sunlit
N/A
Visualization observer readout
Local Sidereal Time
09:25:57
Azimuth
Unknown
Elevation
Unknown
Doppler factor
Unknown
Orbital elements
Apogee altitude
557.377 km
Perigee altitude
542.806 km
Semi-major axis
6,928.228 km
Eccentricity
0.00105
Inclination
53.0346°
RAAN
216.7388°
Arg. of periapsis
272.6705°
True anomaly
87.42838°
Mean anomaly
87.308°
Eccentric anomaly
87.36819°
Mean motion
3.76366 °/min
Orbital period
95.65 mins
BSTAR
0.000092143
Loading maneuver chart data...
Computing Atmospheric mass density...
Loading historical data...
Loading historical data...
Loading historical data...
Loading historical data...
Loading historical data...
Loading historical data...
Loading historical data...

Documentation

Showing up to 5 results
|